Wind_Speed
40 40 39 37 36 36 37 38 40 40 41 42 42 43 42 41 39 38 37 37 35 34 33 32 30 28 28 26 26 27 27 26 26 27 27 25 25 25 25 26 27 28 29
39 39 38 36 35 35 35 35 35 36 37 37 38 37 36 35 34 34 32 31 30 30 29 27 26 26 25 25 26 26 26 25 24 24 24 24 24 24 25 26 27 29 30
38 38 37 36 35 34 33 33 33 33 33 33 32 31 30 29 29 27 27 26 26 26 26 25 25 24 25 25 25 24 24 23 22 22 22 22 23 24 25 27 28 30 31
38 37 36 35 34 32 32 31 31 30 29 28 27 26 25 24 22 19 20 22 24 24 25 25 24 25 25 24 24 23 23 22 21 20 21 22 23 24 26 28 29 30 32
37 36 34 34 33 31 30 30 28 26 25 24 22 21 20 18 17 17 17 19 21 22 23 23 24 24 24 23 22 21 20 19 19 19 20 21 23 25 26 28 29 31 32
37 36 33 32 32 30 29 28 26 24 22 21 19 18 16 14 14 16 17 19 20 21 22 23 23 23 22 20 18 18 18 17 17 19 20 21 23 24 25 27 28 29 31
38 36 34 32 31 29 28 26 24 22 21 20 18 16 14 13 12 13 13 14 16 18 18 19 18 16 15 14 14 14 15 15 16 17 18 19 20 22 23 25 26 28 30
39 37 35 32 30 28 27 25 23 21 20 19 17 15 13 12 12 12 12 12 12 12 13 12 12 11 11 11 11 11 11 12 13 14 15 16 18 19 21 23 25 28 30
40 38 36 33 30 28 26 24 22 21 19 18 17 15 13 13 12 11 10 10 9 8 8 8 9 9 8 8 8 9 10 10 11 12 13 15 17 19 21 23 25 28 30
42 39 37 34 32 29 26 24 22 20 19 17 16 14 13 11 10 8 7 7 8 8 7 7 6 6 6 6 7 7 8 8 9 11 13 15 17 19 21 24 26 28 30
44 41 37 35 33 30 27 25 22 20 19 17 15 13 11 9 7 7 7 8 8 8 7 7 6 6 6 6 6 6 6 7 9 10 12 14 16 18 21 23 25 27 28
47 42 38 36 34 32 29 26 23 21 19 16 15 13 11 9 9 9 9 9 8 8 7 7 6 6 5 5 5 5 6 7 8 10 12 14 16 18 20 22 24 25 27
49 45 41 37 34 32 31 28 24 22 19 17 15 13 12 11 11 11 10 10 9 8 7 6 6 6 5 5 5 5 6 7 8 10 11 13 16 18 21 22 24 25 25
51 48 45 40 37 34 33 30 26 23 20 18 16 15 14 14 13 13 12 11 10 9 8 7 7 6 6 6 6 5 5 6 8 9 12 14 17 19 21 23 24 25 25
50 48 46 41 39 36 34 32 28 25 22 20 19 18 17 16 15 14 14 12 11 10 9 8 8 8 8 7 6 5 5 6 8 10 12 15 17 20 22 23 24 25 25
48 48 46 42 39 38 36 34 31 27 25 22 21 20 19 17 16 15 14 13 12 11 10 9 9 9 9 8 7 6 5 6 7 9 12 15 17 20 22 24 25 26 26
45 46 45 42 39 40 39 36 33 30 27 25 23 22 20 18 17 16 15 13 12 12 11 11 10 10 10 8 7 6 5 6 7 9 11 14 17 19 22 24 26 27 28
40 43 42 41 40 40 40 38 35 32 29 27 25 24 22 19 17 16 15 14 13 12 12 12 11 11 10 9 8 7 7 6 7 9 11 13 16 19 21 24 26 28 30
36 40 41 41 40 40 40 39 37 34 31 29 27 25 22 20 18 16 15 14 14 13 13 12 12 12 11 11 10 9 8 8 8 9 11 13 15 18 20 23 26 28 30
34 38 39 40 40 39 40 39 38 36 32 29 27 25 23 21 18 17 16 15 14 14 14 13 13 13 13 13 12 11 10 10 10 11 12 14 15 17 20 22 25 28 30
33 37 39 39 39 39 40 39 37 36 33 30 28 26 24 21 19 17 15 15 15 14 14 14 14 14 14 14 14 13 13 13 13 13 14 15 17 18 20 22 25 27 30
33 37 39 39 38 39 39 38 37 36 34 32 29 26 23 21 18 17 16 15 15 15 15 15 15 15 15 15 15 15 15 15 15 15 16 17 18 20 21 23 25 28 30
33 37 38 38 38 40 39 39 38 37 35 32 29 26 23 21 19 18 17 17 16 16 15 15 15 16 16 16 16 16 16 17 17 17 18 19 20 21 22 24 26 28 30
34 36 37 38 38 40 39 38 37 37 35 32 28 25 23 21 19 18 17 17 17 16 16 15 16 16 16 16 17 17 18 18 18 19 20 21 21 22 24 26 28 30 32
34 35 37 38 38 38 38 37 37 36 35 32 28 26 24 22 20 19 18 17 17 16 16 16 16 16 16 17 17 18 18 18 19 19 20 21 21 23 25 27 29 32 33
35 35 35 36 37 37 37 37 36 35 34 31 28 26 24 22 20 19 18 17 16 16 16 16 16 16 16 16 17 17 18 18 19 19 19 20 21 23 26 28 31 34 36
Wind_Direction
318 316 312 308 303 298 294 290 288 287 287 286 286 285 284 281 279 277 274 271 266 263 262 259 258 256 256 253 253 255 256 255 253 249 247 246 247 249 252 254 255 255 256
318 316 314 310 306 302 298 295 292 290 289 289 289 287 285 281 278 275 270 264 258 255 251 248 249 250 250 251 252 256 258 258 256 253 253 252 252 254 257 260 260 260 260
316 316 314 311 307 303 301 299 296 295 294 293 291 289 287 282 277 271 263 255 249 244 241 241 241 244 248 250 253 259 260 258 256 255 255 256 258 260 262 263 264 265 266
313 314 313 311 307 303 301 301 299 298 297 296 294 293 289 281 272 264 253 244 240 237 238 238 241 247 249 250 254 257 257 256 255 255 257 260 263 264 266 267 268 269 269
309 310 311 311 307 303 301 300 299 298 298 298 298 297 292 279 265 257 250 241 238 236 236 238 243 246 248 250 252 252 251 251 254 257 261 264 267 269 271 272 273 273 273
305 306 306 307 306 301 300 299 298 298 298 298 298 300 299 285 267 258 253 245 242 240 239 243 244 243 245 244 245 246 248 252 258 263 267 270 272 274 276 277 277 278 277
300 301 301 302 302 298 296 296 294 294 295 298 299 299 300 293 275 256 249 245 241 237 236 236 237 237 237 240 245 251 257 262 264 268 271 274 277 280 281 282 283 284 283
293 294 295 296 295 293 290 290 289 289 290 292 296 295 294 290 278 267 256 246 235 232 231 230 232 235 240 244 249 254 260 265 270 273 276 280 284 287 289 290 291 291 289
287 287 287 288 287 285 282 282 282 282 284 285 288 289 287 284 275 264 254 240 232 225 222 223 227 231 237 239 242 250 258 265 271 277 283 289 293 296 298 298 298 296 295
279 279 281 280 277 276 273 273 273 273 276 278 279 281 281 277 267 256 237 220 211 205 202 202 205 212 220 228 235 245 258 269 279 289 296 300 303 306 308 308 307 305 303
270 269 272 271 268 266 263 262 263 264 265 267 268 268 266 257 243 222 208 201 195 192 193 197 201 208 218 230 242 255 269 282 294 303 307 310 313 315 316 317 316 314 310
261 259 261 262 260 257 253 252 254 254 254 254 255 254 248 232 216 204 200 195 187 184 187 192 200 211 226 241 252 266 281 295 306 313 318 321 323 325 325 325 324 322 319
252 250 250 251 251 249 245 243 243 243 242 241 240 238 230 217 208 202 200 197 194 195 196 202 214 226 238 248 258 272 289 304 315 323 329 333 335 335 334 333 332 330 325
244 243 243 242 242 241 237 235 234 233 231 230 228 225 220 214 209 205 205 205 208 209 214 221 231 240 246 250 260 273 291 310 325 336 342 345 346 345 344 342 340 337 332
239 237 235 234 233 232 231 228 226 224 222 221 220 217 214 213 211 210 210 212 216 220 228 237 242 246 249 251 258 271 295 320 334 343 348 351 352 352 351 349 347 345 341
235 232 231 230 227 226 224 222 218 217 216 215 215 214 213 212 213 214 216 220 224 230 238 244 247 247 247 247 254 269 293 319 335 345 351 354 357 358 357 355 353 351 348
234 229 227 226 223 221 219 216 213 212 211 211 211 211 211 212 214 217 222 226 231 237 242 245 247 246 243 243 249 264 285 310 330 343 351 356 358 360 360 359 358 355 353
233 226 223 221 221 217 214 211 208 207 207 207 208 209 210 212 215 220 226 232 237 241 242 244 245 242 240 242 247 258 278 298 317 334 346 353 357 358 359 359 358 358 356
231 224 219 217 216 213 211 207 204 204 205 205 206 207 210 213 218 224 230 235 240 242 243 245 244 240 238 240 246 257 271 287 304 320 332 341 347 351 353 354 356 356 356
227 221 217 214 212 209 207 204 202 202 203 204 205 207 210 214 220 226 233 239 243 244 245 245 243 241 239 241 247 256 267 280 293 305 317 325 332 338 344 348 351 353 354
223 216 213 209 207 205 203 201 200 199 201 203 204 207 210 214 221 228 235 240 243 244 245 245 244 243 243 244 249 256 264 276 285 293 304 313 320 326 333 339 344 347 349
218 211 208 205 202 200 199 198 198 198 199 201 204 206 210 215 222 229 236 240 242 244 245 245 246 246 247 248 251 256 263 272 279 286 294 302 310 318 325 331 336 340 343
211 205 203 201 198 196 197 197 197 196 198 201 203 207 211 216 224 231 237 242 243 243 244 245 246 248 250 253 255 258 263 270 277 283 290 296 302 310 318 324 330 334 338
202 199 197 197 196 194 195 195 196 196 198 201 204 208 213 219 229 236 241 243 241 242 244 246 247 248 250 254 258 261 265 271 277 282 287 292 298 306 313 320 325 330 333
192 191 191 192 192 192 192 193 194 196 198 201 206 212 217 225 233 238 239 237 238 240 241 243 245 247 251 255 260 263 268 272 277 281 285 289 297 305 311 317 322 326 329
184 184 185 187 188 189 191 192 194 196 197 201 208 214 221 227 233 234 232 232 234 236 238 241 244 248 252 258 262 267 271 274 277 280 284 290 298 305 310 315 320 323 326
Height
5769 5762 5757 5752 5747 5744 5741 5738 5736 5734 5732 5730 5727 5725 5722 5721 5719 5718 5717 5717 5717 5718 5719 5721 5723 5726 5728 5730 5732 5734 5735 5736 5738 5739 5741 5743 5745 5747 5749 5752 5753 5755 5756
5762 5755 5750 5744 5739 5735 5732 5729 5726 5723 5721 5718 5716 5713 5710 5709 5707 5707 5706 5706 5707 5708 5711 5713 5715 5718 5721 5723 5725 5727 5729 5730 5732 5733 5735 5736 5738 5740 5742 5744 5745 5746 5747
5754 5748 5743 5738 5733 5728 5724 5721 5718 5715 5712 5709 5706 5703 5701 5699 5697 5696 5696 5697 5699 5701 5703 5706 5708 5711 5714 5716 5719 5721 5723 5724 5725 5727 5729 5730 5732 5734 5735 5736 5737 5738 5738
5747 5741 5736 5731 5726 5722 5718 5714 5711 5707 5704 5701 5698 5696 5693 5691 5690 5689 5690 5691 5692 5694 5697 5700 5702 5705 5707 5709 5712 5715 5716 5718 5719 5721 5723 5724 5726 5726 5727 5728 5728 5729 5729
5739 5734 5729 5724 5719 5715 5712 5708 5705 5702 5699 5696 5693 5690 5688 5686 5685 5685 5685 5686 5687 5689 5692 5694 5697 5699 5701 5704 5706 5708 5710 5712 5713 5715 5716 5718 5718 5719 5720 5720 5720 5719 5719
5730 5726 5721 5717 5713 5709 5706 5703 5700 5697 5694 5692 5689 5686 5684 5682 5681 5681 5681 5682 5683 5685 5687 5690 5692 5694 5696 5698 5700 5703 5705 5707 5708 5709 5710 5711 5712 5712 5711 5711 5711 5710 5710
5720 5717 5713 5710 5706 5702 5700 5697 5694 5692 5690 5688 5685 5683 5681 5679 5679 5678 5679 5679 5680 5682 5684 5686 5688 5690 5692 5694 5696 5698 5700 5702 5703 5704 5705 5705 5705 5704 5704 5703 5702 5701 5699
5709 5707 5704 5701 5698 5695 5693 5691 5689 5687 5686 5684 5683 5681 5679 5678 5677 5677 5677 5677 5678 5679 5681 5683 5685 5687 5688 5690 5693 5695 5696 5698 5698 5699 5699 5699 5698 5697 5696 5695 5694 5692 5690
5698 5696 5694 5692 5690 5688 5686 5685 5683 5682 5681 5680 5679 5678 5677 5676 5675 5675 5675 5675 5676 5677 5679 5681 5683 5684 5686 5688 5690 5692 5693 5694 5694 5694 5694 5693 5692 5691 5690 5688 5686 5683 5681
5684 5683 5683 5682 5681 5679 5678 5678 5677 5676 5676 5675 5675 5674 5674 5673 5673 5673 5673 5674 5675 5676 5678 5679 5681 5683 5684 5686 5687 5688 5689 5690 5690 5689 5689 5688 5687 5685 5683 5680 5677 5674 5671
5669 5669 5670 5671 5670 5670 5670 5670 5670 5670 5670 5670 5671 5671 5671 5671 5671 5672 5672 5673 5674 5675 5677 5678 5680 5681 5683 5684 5685 5685 5686 5686 5686 5685 5684 5683 5681 5679 5676 5673 5670 5666 5662
5650 5653 5656 5658 5659 5659 5660 5662 5663 5664 5664 5665 5666 5667 5668 5669 5670 5670 5671 5672 5673 5675 5676 5677 5678 5679 5680 5681 5682 5682 5683 5683 5682 5681 5680 5678 5676 5673 5670 5667 5663 5659 5655
5630 5635 5639 5643 5646 5648 5650 5653 5655 5657 5658 5660 5661 5663 5665 5666 5667 5668 5669 5670 5672 5673 5674 5675 5676 5677 5678 5679 5679 5679 5679 5679 5679 5678 5676 5674 5672 5668 5665 5661 5657 5653 5648
5608 5615 5621 5626 5631 5635 5639 5643 5646 5649 5652 5654 5656 5659 5661 5663 5665 5666 5667 5668 5670 5671 5672 5673 5674 5675 5675 5676 5676 5677 5676 5676 5675 5674 5672 5670 5667 5664 5660 5656 5652 5647 5643
5587 5596 5604 5610 5616 5622 5628 5633 5638 5642 5645 5648 5650 5653 5656 5659 5661 5663 5665 5666 5667 5669 5670 5670 5671 5672 5673 5673 5673 5674 5673 5673 5672 5670 5668 5666 5663 5660 5656 5652 5648 5643 5639
5568 5577 5586 5594 5602 5609 5616 5623 5628 5633 5637 5641 5644 5648 5651 5654 5657 5660 5662 5663 5664 5666 5667 5667 5668 5668 5669 5670 5670 5670 5670 5670 5669 5667 5665 5663 5660 5657 5653 5649 5645 5640 5635
5552 5561 5570 5579 5588 5596 5604 5612 5619 5625 5629 5634 5638 5642 5645 5649 5653 5655 5657 5659 5661 5662 5663 5664 5664 5665 5665 5666 5667 5667 5667 5667 5666 5664 5662 5660 5658 5654 5651 5647 5642 5637 5632
5539 5547 5556 5565 5575 5584 5593 5602 5609 5616 5622 5627 5632 5636 5640 5644 5648 5650 5653 5655 5656 5657 5659 5659 5660 5661 5662 5662 5663 5664 5664 5663 5663 5661 5660 5658 5655 5652 5649 5645 5640 5635 5630
5528 5535 5544 5554 5563 5573 5583 5592 5600 5608 5615 5620 5625 5630 5634 5638 5642 5645 5648 5650 5651 5652 5654 5655 5656 5657 5658 5659 5660 5660 5660 5660 5659 5658 5657 5655 5652 5650 5646 5642 5638 5633 5627
5519 5526 5535 5544 5554 5563 5573 5583 5592 5600 5608 5614 5619 5624 5629 5633 5637 5640 5643 5645 5646 5647 5649 5650 5651 5653 5654 5655 5656 5656 5656 5656 5655 5655 5653 5651 5649 5646 5643 5639 5635 5630 5625
5510 5518 5527 5536 5546 5555 5566 5575 5584 5593 5601 5608 5613 5619 5623 5628 5631 5635 5637 5639 5641 5642 5644 5645 5647 5648 5649 5650 5651 5652 5652 5652 5651 5651 5649 5648 5645 5643 5640 5636 5632 5627 5622
5503 5511 5520 5529 5539 5549 5559 5568 5578 5587 5594 5601 5607 5613 5618 5622 5626 5629 5632 5634 5636 5637 5639 5640 5642 5643 5644 5645 5646 5647 5647 5647 5647 5646 5645 5643 5641 5638 5636 5632 5628 5624 5619
5495 5504 5513 5524 5533 5543 5553 5562 5572 5580 5588 5595 5602 5607 5612 5617 5620 5624 5626 5628 5630 5632 5634 5636 5637 5638 5639 5640 5641 5642 5642 5642 5642 5641 5640 5638 5636 5634 5631 5628 5624 5620 5615
5490 5499 5509 5519 5528 5539 5548 5558 5567 5575 5583 5590 5597 5602 5607 5611 5615 5618 5621 5623 5625 5627 5629 5631 5632 5633 5634 5635 5636 5636 5637 5636 5636 5635 5634 5632 5631 5628 5626 5622 5618 5614 5610
5486 5496 5506 5516 5525 5535 5545 5554 5563 5571 5578 5585 5591 5597 5602 5606 5610 5613 5615 5618 5620 5622 5624 5625 5627 5628 5629 5630 5630 5631 5631 5631 5630 5629 5628 5627 5625 5622 5619 5616 5612 5608 5604
5485 5495 5504 5514 5523 5533 5542 5551 5559 5567 5574 5581 5587 5592 5596 5601 5605 5608 5610 5613 5615 5617 5619 5620 5622 5623 5624 5624 5625 5625 5625 5625 5624 5623 5622 5621 5619 5616 5613 5610 5606 5601 5597